Weather in Jinja

Uganda     0°26′04″N   33°12′34″E
temp.,
°C
wind,
m/s
gust,
m/s
humid.,
%
clouds,
%
prec.,
mm/h
press.,
hPa
HPBL,
m
8 march, mon
mon800:00+21s238364 0.0 1010108
03:00+19sw019155 0.9 100964
06:00+18w119376 1.9 101145
09:00+22wsw127947 4.0 1012250
12:00+29sse234387 0.4 10101557
15:00+26ssw475584 0.4 1006564
18:00+21sw5108598 1.3 1006250
21:00+20wsw128873 1.4 101086
9 march, tue
tue900:00+18w129391 2.5 101148
03:00+19w239195 3.1 1010111
06:00+18ssw239054 0.2 1012105
09:00+22s378243 1.6 1014428
12:00+26s55550 0.7 10121303
15:00+27s55550 0.8 1008920
18:00+25s46640 0.0 1008733
21:00+21ssw38820 0.0 1010288
10 march, wed
wed1000:00+21s258714 0.1 1011194
03:00+19s228856 2.0 1011118
06:00+19se128792 0.4 1012163
09:00+23se267896 0.9 1013501
12:00+28s444615 0.9 10111476
15:00+28s44468 0.9 10061049
18:00+26ssw47560 0.0 1006512
21:00+21ssw377950 0.0 1009257
11 march, thu
thu1100:00+21ssw2280100 0.0 1010155
03:00+20s1287100 0.9 101065
06:00+20sse1288100 0.2 1010119
09:00+24sse2675100 0.5 1012443
12:00+28s334728 0.0 10101420
15:00+29s444514 0.0 10051015
18:00+27ssw58540 0.0 1005555
21:00+21sw258216 0.0 1008192
12 march, fri
fri1200:00+22sse127758 0.0 1010125
03:00+21sse128177 0.3 1009146
06:00+20sse23837 0.0 1010151
09:00+26sse365729 0.0 1011781
12:00+29sse334369 0.0 10091306
15:00+30s664484 0.0 10051084
18:00+28ssw474969 0.0 1005608
21:00+21sw247035 0.0 1007104